Location: Newark
(12.4436°N, 0.6167°W)
Time: 21:33:53
(UTC+00:00)

Vanguard 2 - Pass Details

Date: 10 December 2019
Orbit: 553 x 2938 km, 32.9° (Epoch: 17 January)

Event Time Altitude Azimuth Distance (km) Brightness Sun altitude
Rises 23:31:25 0° 244° (WSW) 4,718 - -78.0°
Reaches altitude 10° 23:34:04 10° 246° (WSW) 4,000 - -78.3°
Maximum altitude 23:45:35 75° 330° (NNW) 2,433 - -79.2°
Drops below altitude 10° 00:02:56 10° 55° (NE) 5,730 - -79.3°
Exits shadow 00:07:07 - 57° (ENE) 6,679 12.3 -79.1°
Sets 00:07:37 0° 57° (ENE) 6,789 12.3 -79.1°
